CAPE
2401 2499 2650 2731 2892 2912 2896 2866 2953 2860 3029 2952 3039 2943 2780 2508 2482 2799 2981 2960 2683 2607 2686 2443 2721 1906 2298 2178 2271 2164 1881 1763 1723 2034 1972 1889 2393 2910 3313 3455 3475 3120 2892 2542 2020 1848 1790 1834 2070 1910 1992 2065 1779 1625 1689 1838 1883 1525 1224 1651 1543 1500 1482 1461 1434 1464 1308 1338 1356 1426 1568 1382 1387 1308 1250 1297 1100 998 925 936 965 1009 947 921 936
2359 2658 2653 2712 2926 3066 2985 2858 2849 2956 2901 2842 3005 2948 2798 2578 2613 2821 2887 2829 2650 2707 2528 2339 2243 2294 2280 2105 1869 1356 1472 1416 1568 1657 1971 2082 2376 2481 3248 3469 3524 3351 3199 2656 2179 1732 1497 1986 2047 1841 1839 1927 1993 1744 1690 1660 1374 1616 1425 1412 1711 1563 1700 1526 1388 1495 1253 989 1256 1234 1521 1586 1555 1440 1391 1381 1357 1260 1238 1207 1241 1261 1219 1195 1227
2460 2713 2686 2701 2761 2726 2748 2852 2759 2796 3036 2900 3126 3018 2833 2621 3058 3028 2964 2881 2821 2758 2434 2062 2128 2012 1991 1638 1209 1029 1041 1518 1506 1850 1613 2462 2255 2509 3418 3412 3463 3475 3368 3029 2555 2094 1770 2127 2263 1946 1882 2195 1871 1732 1618 1676 1644 1331 1627 1645 1559 1816 1751 1571 1612 1457 1362 1295 1398 1454 1458 1904 1927 1689 1762 1730 1574 1500 1422 1382 1358 1336 1347 1327 1203
2837 2967 2880 2780 2620 2592 2711 2808 2773 3010 3134 3018 3080 3016 2846 2891 3186 3186 3064 3067 3003 2564 2179 1819 1705 1256 1380 1482 1169 956 835 1203 620 962 1826 2089 2692 2578 2814 3024 3603 3471 3448 3340 2426 2472 2373 2286 2231 2108 1972 2095 2146 2038 1862 1754 1878 1815 1726 1403 1438 1724 1661 1774 1668 1632 1578 1411 1565 1797 1566 1586 1585 1761 1794 1814 1742 1708 1724 1601 1560 1570 1536 1541 1458
2768 2863 2986 2780 2795 3039 2745 2986 3051 3174 3214 3351 3350 3239 2929 2832 3238 3259 3218 3110 2774 2308 1894 1300 1109 757 810 768 719 752 1144 1105 1051 1043 1298 1910 2301 2517 2493 2883 3024 3403 3270 3086 2818 2140 2596 2435 2183 2307 2183 2111 2157 1996 1997 1723 1919 1860 1585 1657 1797 1564 1662 1585 1617 1752 1654 1734 1583 1816 1675 1694 1623 1762 1900 1447 1460 1481 1539 1437 1490 1540 1764 1599 1647
2837 2992 2926 2867 3014 3161 3133 3087 3211 3354 3197 3433 3200 3198 2805 2983 3145 3078 2536 2759 2508 1607 1201 1119 758 766 269 483 460 599 614 270 505 680 1352 1765 2186 2514 2627 2674 2929 2874 3018 3014 2836 2669 2626 2540 2488 2368 2302 1974 1941 2016 2035 1885 1899 1859 1708 1746 1944 1919 1702 1707 1728 1646 1758 1690 1591 1610 1243 1535 1834 1847 1899 1911 1719 1526 1509 1566 1525 1620 1622 1606 1594
3148 3194 2872 3001 2959 3050 3257 3192 3266 3262 3096 3365 3214 2945 2900 3110 3058 2806 2833 2714 1953 925 1234 977 696 554 646 726 500 608 592 387 600 685 1223 2149 2419 2215 2435 2552 2678 2766 2857 2994 2579 2900 2836 2662 2484 2208 2325 2253 2113 2123 1905 1796 1570 1613 1534 1720 1912 1831 1810 1741 1693 1552 1586 1690 1582 1476 1034 1138 1354 1408 1608 1529 1637 1636 1684 1714 1716 1594 1571 1619 1664
3389 3346 3083 2918 2818 2929 3201 3478 3517 3196 3314 3448 3150 2912 3297 3132 2994 2734 2691 2384 1409 763 708 570 372 442 783 903 973 997 700 754 674 666 976 2003 2001 2599 2491 2633 2787 2767 2641 3020 2820 1784 2817 2483 2576 2282 2370 2528 2168 2001 1766 1639 1572 1494 1446 1635 1683 1771 1461 1576 1782 1650 1650 1833 1534 1419 1227 893 996 1210 1471 1585 1522 1224 1478 1647 1643 1607 1693 1679 1666
3252 3286 3111 2959 2964 3081 3185 3488 3478 3253 3462 3446 3077 3096 3263 2767 3186 2998 2830 2832 1126 739 581 365 182 194 358 334 526 1145 715 589 830 879 1506 1696 2131 1917 2396 2631 2863 2841 3070 3145 2877 2819 3115 2754 2464 2435 2499 2280 1950 2068 1701 1786 1564 1507 1453 1583 1568 1546 1422 1328 1455 1460 1355 1670 1562 1268 1221 1299 1352 1314 1091 1064 1184 1104 1353 1370 1594 1702 1604 1700 1759
3155 3207 3153 3039 3057 3244 3208 3615 3372 3459 3414 3412 3078 3167 3249 3100 2855 3059 2686 2638 954 693 475 310 172 210 270 357 1197 875 905 916 966 1446 1121 1156 1433 1854 1975 2160 2629 2674 2864 3013 2972 2708 2673 2764 2724 2536 2374 1978 1920 1991 2087 1812 1454 1372 1458 1595 1536 1440 1374 1355 1391 1468 1414 1344 1394 1392 1289 1418 1269 1353 1182 1013 1182 1155 1102 1010 1141 1288 1086 1149 1376
3134 3247 3187 3168 3255 3363 3399 3615 3308 3473 3439 3146 3038 3105 3120 2909 2792 2718 2632 2044 1225 624 730 613 326 231 185 387 998 1176 717 726 539 825 793 736 997 1446 1538 2314 2328 2572 2738 2627 2682 2643 2467 2467 2423 2433 2484 1673 1939 2082 2135 2057 1611 1610 1490 1381 1524 1504 1548 1573 1512 1385 1414 1293 1480 1474 1410 1339 1384 1307 1323 1037 977 910 951 988 952 1172 1100 1139 1355
3306 3316 3315 3360 3367 3448 3552 3638 3294 3414 3350 2880 2963 3038 3294 2891 2723 2804 2430 1699 1461 1029 967 627 200 232 212 309 781 981 840 688 213 503 820 792 1014 1499 1363 1574 1682 1646 1606 2247 2284 2452 2548 2449 2462 2662 2614 2175 1884 1931 2005 2080 2055 1765 1582 1736 1780 1579 1696 1721 1552 1439 1493 1544 1530 1478 1380 1399 1427 1241 1179 1112 995 801 802 697 943 1031 1109 1002 1047
3296 3355 3334 3390 3429 3487 3575 3493 3330 3290 3335 3245 3287 3275 3404 2682 2833 2741 1987 1336 1136 808 623 187 280 148 182 47 447 845 1213 788 207 346 676 762 1282 1432 1482 1376 1678 1677 2031 2279 2407 2354 2163 2268 2282 2461 2798 3080 2557 1992 1839 2015 1994 2004 1777 1790 1704 1698 1561 1535 1613 1450 1466 1491 1335 1381 1365 1340 1147 1250 1200 1106 1128 1003 777 619 775 964 1016 1128 1290
3227 3443 3418 3521 3634 3494 3490 3471 3436 3306 3442 3466 3564 3257 3013 2703 2532 1906 1898 1437 1129 399 244 208 176 9 3 18 80 412 828 232 151 162 498 718 1032 1344 1495 1058 858 1322 1717 2200 2441 2316 2118 2154 2323 2475 2383 2748 2624 2704 2289 1934 2073 1807 1545 1700 1690 1527 1473 1306 1426 1452 1480 1324 1333 1328 1274 1262 1248 1173 1107 1034 812 714 834 752 965 1060 1051 1068 1273
3262 3379 3424 3579 3470 3518 3491 3492 3472 3365 3487 3392 3136 2758 2689 2856 2725 1752 1678 1282 980 629 476 146 16 80 328 42 41 34 456 347 199 210 341 657 815 956 1180 904 1228 1686 1722 1361 1259 1679 1934 1975 2389 2593 2671 2548 2536 2570 2535 1981 1954 2037 1805 1572 1804 1491 1480 1288 1357 1305 1482 1322 1135 1252 1247 1282 1268 1190 1206 1077 968 921 933 944 983 1017 1049 1019 1011
3156 3242 3371 3446 3432 3472 3388 3458 3486 3469 3450 3478 3101 2647 2773 2582 2258 1945 1760 1207 776 824 595 275 72 70 25 46 158 2 30 133 322 405 300 528 554 600 1215 1297 1818 2616 1586 861 971 1462 1755 1720 1818 1980 1965 2126 2072 2658 2753 2570 2232 2044 1780 1900 1975 1821 1891 1520 1581 1498 1503 1425 1432 1390 1202 1288 1249 1212 1432 1306 1257 1026 950 927 960 1029 1033 1057 974
3085 3274 3351 3465 3497 3484 3422 3486 3479 3572 3400 3426 3335 2831 2750 2474 2259 2257 1792 1149 730 633 907 252 221 276 19 290 71 8 0 200 7 537 201 230 358 507 1488 1348 1750 2040 1268 1353 2042 1477 1486 2052 2118 1857 1743 1860 1952 2057 2088 1886 2334 2388 1794 1797 2064 1962 1853 1909 1945 1789 1931 1928 1830 1800 1662 1658 1692 1646 1622 1572 1430 1378 1173 1065 1083 1246 1401 1384 1358
3106 3261 3291 3368 3593 3570 3579 3528 3525 3579 3384 3240 3052 2861 2637 2443 2406 2081 1748 1420 964 632 459 909 408 469 362 245 625 344 158 330 205 206 599 374 726 780 1005 1008 1877 1485 1859 1537 1415 770 860 1256 1971 2177 1825 1762 1909 1617 1639 1764 2053 1623 1454 2201 1860 1859 1904 2093 1786 1632 1536 1418 1423 1488 1452 1142 1076 881 684 516 702 782 853 800 945 1091 825 820 777
3000 3222 3307 3434 3570 3690 3648 3607 3534 3552 3407 3228 2903 2744 2496 2540 2304 1822 1645 1537 984 646 211 530 815 932 441 251 337 564 221 308 213 424 370 660 378 438 628 796 1011 1400 1194 962 257 161 512 1014 1352 1805 2129 1857 1814 1946 1539 1205 1699 1976 1419 1690 1656 1434 1606 1498 1522 1124 1433 999 822 1047 1060 776 773 656 403 384 309 315 268 323 340 294 344 323 381
3038 3361 3459 3500 3596 3764 3741 3616 3617 3446 3154 3040 2960 2733 2489 2325 1996 1817 1854 1509 968 543 186 133 152 680 607 518 618 623 591 419 552 216 254 274 659 274 229 222 542 299 824 1161 208 148 232 814 519 1022 1522 2089 1934 1662 1102 1137 1006 1184 1289 1475 980 1002 1307 1341 1315 1296 800 1021 959 860 687 487 369 296 266 268 309 273 267 212 159 250 284 270 245
3282 3439 3571 3492 3590 3737 3803 3697 3603 3478 2842 2798 2735 2762 2680 2209 1782 1584 1415 1401 1066 720 456 438 117 201 604 594 336 512 414 353 592 558 541 182 183 315 332 188 211 285 236 617 1129 480 632 1000 933 1000 893 1170 1558 1652 1247 1234 1336 1263 1266 1560 1576 1355 791 1017 1160 1112 1151 763 177 178 86 46 4 0 16 58 60 144 214 221 175 107 183 258 132
3430 3442 3604 3599 3650 3742 3745 3647 3625 3238 2655 2766 2758 2626 2530 2188 1948 1492 1323 1192 1102 827 505 526 344 223 184 620 315 264 412 262 210 270 359 776 171 118 79 150 84 134 648 526 698 528 422 461 593 769 807 693 823 1275 1332 1470 1760 1472 1513 1570 1599 1688 1529 902 1068 378 204 446 424 229 174 175 198 92 25 2 3 6 21 39 84 137 168 108 83
3273 3440 3506 3574 3668 3749 3625 3561 3535 3389 2630 2545 2750 2768 2452 2155 1976 1562 1406 1086 1020 871 695 742 703 771 395 411 280 92 255 256 356 136 172 270 125 26 28 16 0 49 534 480 966 724 664 615 464 323 860 660 773 1032 1140 1212 2128 1850 1913 1560 1494 1608 1631 1223 904 572 644 747 734 767 296 128 122 282 364 354 288 233 242 273 355 387 386 338 312
3418 3264 3385 3243 3545 3637 3595 3380 3313 2814 2522 2494 2543 2864 2481 2076 2025 1726 1248 1068 1150 1000 872 839 544 586 259 120 279 63 107 34 26 364 259 190 102 90 59 277 70 0 451 557 445 616 1003 306 305 219 724 576 905 1251 1378 1545 1345 1937 2068 1859 1749 1587 1532 1512 1334 1251 1057 853 718 873 961 695 518 221 177 65 132 185 148 128 165 229 257 271 272
3391 3238 3253 3240 3416 3424 3290 2968 2792 2665 2499 2493 2490 2859 2498 2146 2115 1916 1334 1195 1018 948 898 747 459 275 70 37 104 86 41 108 23 0 38 218 95 203 66 51 110 98 472 247 154 330 356 431 228 411 579 957 660 1231 1327 1266 836 1761 1946 1318 1538 1416 1240 1261 1282 1068 1078 1070 887 838 784 867 796 888 206 0 0 0 28 92 94 143 192 211 223
3197 3333 3292 3390 3387 3335 3222 3078 3020 2729 2524 2577 2570 2850 2504 2201 2151 2084 1485 1232 1086 993 918 610 743 504 299 369 148 112 123 53 60 61 0 3 50 12 419 283 87 53 724 414 739 26 45 277 328 1075 1026 886 555 1034 1189 603 629 1589 1427 1268 1296 1327 988 788 756 658 469 350 219 383 426 358 399 564 825 628 500 493 548 486 423 349 317 343 375
3207 3492 3550 3612 3546 3476 3477 3386 3082 2600 2476 2453 2511 2670 2322 2238 2220 2220 1696 1293 1076 894 800 724 749 642 628 584 304 134 258 252 82 80 48 31 51 129 212 214 35 22 111 448 394 251 14 231 178 204 928 1393 920 990 1019 872 638 730 822 1223 1400 1337 1129 654 360 168 131 168 176 196 289 330 298 234 299 514 622 420 370 545 700 724 720 657 592
3333 3477 3629 3450 3530 3536 3384 3118 2884 2496 2458 2531 2697 2570 2224 2242 2284 2299 1929 1085 999 960 840 744 598 740 542 571 770 193 459 279 228 194 198 124 234 262 200 128 79 98 123 119 98 112 129 98 439 627 1076 1083 1027 1041 754 425 636 270 364 783 1298 1416 1083 553 219 57 20 26 83 130 160 228 230 276 320 368 280 195 173 240 422 639 745 834 878
3176 3214 3332 3428 3479 3529 3349 3106 2840 2629 2542 2572 2617 2600 2206 2194 2288 2268 2068 1182 909 959 843 740 702 464 578 763 557 454 765 783 569 410 581 768 549 496 231 129 145 66 246 142 294 32 194 0 8 1190 919 953 1461 1104 1313 1150 640 568 1055 1043 1264 1402 1139 536 132 42 16 19 18 10 12 50 101 158 274 285 215 220 270 340 366 372 500 529 557
2735 2889 3085 3359 3416 3362 3384 3248 2886 2536 2641 2552 2585 2576 2224 2184 2284 2276 2118 1514 963 1021 966 760 672 654 539 652 493 461 729 778 537 381 774 821 592 542 496 349 558 203 166 118 182 194 164 301 5 585 762 918 650 1042 994 1013 646 1113 1212 1052 878 877 718 191 91 75 50 11 0 0 0 0 0 2 2 0 1 6 58 164 313 238 381 420 516
2726 2923 3057 3050 3276 3404 3336 3202 2893 2704 2694 2555 2626 2505 2234 2131 2232 2263 2117 1744 1136 1040 989 799 688 667 666 551 710 516 772 442 361 378 675 712 697 677 655 686 608 274 432 371 137 511 66 103 118 32 495 732 337 640 746 900 856 876 1302 1241 1165 844 51 930 58 1 0 0 0 0 0 0 0 0 0 0 0 7 40 142 212 233 322 370 456
2542 2749 2818 2818 3078 3137 3084 2864 2687 2734 2817 2570 2360 2498 2199 2043 2136 2153 2043 1832 1266 1035 893 689 589 710 663 601 817 734 875 704 595 450 728 615 679 591 600 650 642 489 601 530 268 169 321 13 338 478 400 570 744 580 628 690 1345 558 1177 1069 1380 292 1220 706 735 14 10 0 0 0 0 0 0 0 0 0 0 25 89 167 149 132 120 196 261
2376 2524 2704 2805 3028 3094 2923 2893 2776 2898 2970 2733 2703 2474 2244 2064 2004 2070 1990 1838 1565 1017 1054 975 646 698 674 679 774 776 938 716 690 545 462 710 715 599 747 748 571 684 600 477 389 349 753 264 272 184 546 530 306 632 564 504 727 978 796 1059 1035 720 626 750 564 366 0 0 0 0 0 0 0 0 0 0 0 9 80 182 137 45 29 16 5
2424 2440 2669 2769 2965 3029 2930 3057 3052 3287 3388 3189 2722 2443 2313 2158 1923 2010 2000 1912 1698 1323 1086 1160 951 689 744 733 772 779 928 705 667 601 520 433 504 342 577 384 446 720 608 510 445 346 383 841 305 376 528 548 340 942 591 435 417 741 766 906 1118 929 950 763 493 380 103 0 0 0 0 0 0 0 0 0 0 0 0 0 0 0 0 0 0
2411 2426 2637 2662 2971 3095 3018 3138 3271 3322 3379 3220 2901 2534 2400 2251 2084 1915 1954 1867 1696 1431 1148 1139 1107 937 816 801 705 754 732 584 698 586 466 548 366 375 461 358 416 374 683 556 437 483 312 562 636 403 305 534 319 550 784 660 854 1003 1012 956 776 959 1249 973 579 476 398 3 0 0 0 0 0 0 0 0 0 0 0 0 0 0 0 0 0
2312 2461 2561 2723 2995 3196 3095 3092 3226 3232 3267 3128 2963 2605 2444 2308 2190 1992 1832 1762 1603 1414 1241 1185 1105 1023 895 898 722 685 678 557 690 725 672 613 662 638 560 758 641 540 760 675 577 414 520 486 846 462 517 638 791 723 880 991 712 904 841 819 1309 1233 1048 1052 1041 822 687 36 0 0 0 0 0 0 0 0 0 0 0 0 0 0 0 0 0
2246 2411 2511 2684 2939 3129 2997 3016 3026 3161 3152 3074 2992 2638 2410 2285 2212 2077 1870 1718 1556 1368 1362 1310 1142 1100 957 956 887 781 771 636 774 760 653 725 663 571 569 710 689 626 760 775 732 644 721 700 839 831 891 886 884 1028 1066 808 874 1146 1332 1292 1118 1148 1413 1023 601 679 260 10 1 0 0 0 0 0 0 0 0 0 0 0 0 0 0 0 0
2215 2218 2417 2532 2658 2912 2964 2963 3090 3131 3125 3056 2978 2774 2390 2176 2077 2028 1944 1736 1603 1492 1424 1368 1252 1126 1016 954 918 930 795 695 732 788 777 749 686 612 536 673 702 659 842 956 859 946 788 793 871 1045 899 613 828 974 1104 1001 882 803 1203 1464 1431 1352 1396 1173 719 366 44 159 194 213 614 449 434 1 0 0 0 0 0 0 0 0 0 0 0
2136 2154 2208 2409 2505 2683 2870 2907 2951 3081 3091 2995 2970 2845 2580 2258 2052 1960 1849 1702 1682 1572 1387 1225 1176 1064 958 932 960 974 863 823 734 879 942 785 676 603 678 740 753 742 719 817 996 952 924 845 942 983 946 978 953 1113 1150 623 800 922 1033 1188 1276 1552 1468 1139 1009 828 429 296 314 174 63 27 20 32 13 0 0 0 0 0 0 0 0 0 0
2135 2137 2150 2275 2451 2485 2658 2798 2874 2952 3053 2957 2938 2890 2678 2406 2095 1964 1842 1705 1665 1603 1531 1366 1195 1062 1002 915 848 943 904 899 828 910 1052 976 788 673 750 767 803 793 648 738 1049 914 929 872 850 930 1050 908 1039 976 860 526 680 913 828 917 998 1151 1166 1153 631 426 514 496 491 100 290 119 201 127 86 4 4 0 0 0 0 0 0 0 0
2245 2199 2214 2217 2371 2466 2465 2647 2729 2758 2848 2830 2796 2774 2672 2492 2257 2006 1911 1803 1654 1613 1566 1485 1327 1169 1102 1058 974 876 916 744 634 722 932 770 878 701 912 866 846 874 856 839 1084 1003 952 898 1002 1103 925 889 937 983 1013 1012 964 920 759 373 548 669 557 382 691 461 188 122 218 470 114 96 159 340 434 512 411 245 23 0 0 0 0 0 0
2462 2425 2372 2342 2326 2430 2454 2550 2621 2674 2648 2682 2338 1988 2033 2434 2322 2088 1977 1878 1748 1597 1557 1533 1420 1261 1178 1181 1155 1058 906 790 768 813 871 863 809 763 978 914 872 895 860 883 958 1018 920 947 889 936 912 941 853 1066 1102 1165 898 637 515 584 312 338 349 582 655 476 279 72 201 519 401 601 318 388 431 393 246 286 181 56 54 36 4 0 0
2548 2604 2569 2459 2373 2362 2412 2470 2551 2533 2554 2533 1933 1732 1633 1634 2114 2221 2099 1997 1826 1690 1540 1560 1500 1356 1247 1255 1284 1261 1136 1001 940 957 991 973 964 846 663 499 737 932 934 875 893 918 959 818 791 870 808 890 771 939 1069 1019 498 617 821 930 652 500 509 505 504 636 390 269 378 553 537 656 728 495 452 410 256 216 134 113 35 0 0 0 0
2757 2699 2673 2614 2626 2438 2400 2436 2466 2511 2534 2081 1798 1643 1550 1509 1531 2095 2160 2084 1868 1729 1569 1563 1518 1405 1322 1325 1354 1397 1353 1208 1137 1144 1136 1106 1032 820 641 602 540 427 312 864 896 955 973 826 801 806 714 741 937 1052 920 710 876 912 973 794 628 539 655 708 699 612 492 293 543 391 453 464 586 740 647 568 328 252 150 99 0 0 0 0 0
2855 2880 2813 2672 2663 2618 2487 2532 2444 2458 2483 2016 1720 1601 1519 1482 1465 1570 2113 2114 1953 1766 1575 1575 1508 1534 1442 1350 1420 1511 1490 1394 1345 1318 1308 1334 1274 1078 815 674 550 440 344 4 274 675 845 1023 760 768 878 1023 1158 1189 1040 1055 1207 903 694 380 377 432 476 416 542 305 308 392 398 355 409 299 360 253 189 244 228 207 106 46 18 0 0 0 0
2815 2832 2769 2772 2787 2740 2665 2646 2621 2552 2550 2122 1747 1593 1512 1470 1462 1460 1916 2100 2018 1867 1664 1599 1527 1616 1603 1415 1469 1545 1560 1535 1522 1520 1488 1451 1442 1287 1005 772 609 428 167 0 0 35 538 742 898 915 1104 1387 1529 1654 1436 1066 665 583 456 333 246 235 206 206 274 255 271 368 415 231 212 259 287 132 59 38 67 173 208 45 1 0 0 0 0
2733 2739 2707 2738 2716 2611 2657 2537 2599 2602 2537 2114 1860 1682 1578 1508 1485 1480 1627 2025 2056 1938 1814 1779 1787 1783 1708 1467 1515 1588 1638 1672 1680 1670 1546 1486 1490 1420 1121 829 659 528 382 276 196 278 380 517 861 888 1046 1508 1374 1261 1254 820 501 444 375 157 81 110 131 194 154 121 296 369 476 263 160 98 92 84 89 22 4 0 0 0 0 0 0 0 0
2652 2559 2816 2782 2701 2563 2640 2348 2388 2550 2603 2077 1894 1776 1698 1628 1568 1539 1549 1900 2072 1944 1902 1851 1885 1898 1647 1549 1604 1674 1759 1771 1786 1770 1698 1629 1585 1436 1199 950 767 641 679 737 401 413 572 755 958 922 1152 1536 818 1298 930 511 253 98 26 31 44 43 83 130 111 80 118 147 202 222 132 81 42 0 1 0 0 0 0 0 0 0 0 0 0
2793 2838 2812 2668 2756 2782 2642 2432 2468 2434 2346 2328 2022 1875 1805 1743 1678 1658 1634 1705 1977 1820 1961 1956 1894 1763 1633 1642 1677 1738 1833 1868 1833 1840 1774 1692 1512 1214 1001 902 818 719 927 1056 314 40 96 200 460 439 364 254 215 49 64 100 152 172 170 88 26 58 118 108 70 122 128 43 93 19 1 0 2 0 0 0 0 0 0 0 0 0 0 0 0
2708 2654 2691 2690 2704 2547 2746 2679 2594 2501 2674 2851 2170 1995 1876 1848 1778 1739 1695 1720 1913 1817 1857 1936 1691 1710 1689 1704 1738 1837 1915 1884 1789 1884 1838 1717 1458 1223 1018 923 858 809 697 596 336 258 0 0 219 334 235 211 4 0 77 103 90 70 42 83 159 48 46 83 69 30 11 9 24 2 2 0 0 0 0 0 0 0 0 0 0 0 0 0 0
2828 2950 2750 2748 2922 2975 2745 2801 2527 2508 2752 2456 2240 2142 2006 1952 1895 1832 1771 1717 1750 1799 1793 1889 1717 1754 1753 1796 1852 1928 1967 1879 1982 2010 1865 1657 1300 1093 1004 938 841 767 703 728 454 374 44 5 0 84 160 0 0 4 64 37 0 0 26 208 66 73 36 9 0 25 8 4 35 1 0 0 0 0 0 0 0 0 0 0 0 0 0 0 0
Wind_Speed
14 14 14 14 14 14 15 15 14 14 13 13 12 12 12 12 11 10 10 9 9 8 8 9 9 11 11 8 9 8 7 7 7 8 8 8 8 9 13 12 12 12 10 10 9 5 10 12 10 9 8 8 9 8 7 8 9 10 7 8 8 9 10 10 10 10 9 9 9 10 11 12 12 12 12 10 9 8 7 6 5 6 6 6 7
13 13 13 14 14 14 14 14 13 13 13 12 12 12 12 11 11 11 10 9 9 8 8 8 10 10 10 9 9 9 8 8 8 8 8 9 9 8 13 12 12 11 10 10 10 11 13 14 12 12 11 11 8 9 9 8 8 10 9 8 7 8 8 9 9 10 9 9 9 9 10 10 10 11 12 11 10 8 7 6 5 5 4 5 5
12 12 12 13 14 14 13 13 13 12 11 11 10 10 11 10 9 9 8 8 7 6 7 7 8 9 8 8 9 9 9 8 8 8 8 9 8 9 10 13 13 12 11 10 10 12 12 13 13 12 12 11 10 8 9 9 8 8 10 9 7 6 5 6 7 9 9 9 10 9 10 11 11 12 12 12 10 8 7 6 5 4 4 3 4
12 12 13 13 13 13 12 12 12 11 11 10 10 10 10 9 8 7 6 7 6 6 6 6 6 6 7 7 7 8 8 8 9 8 7 8 8 9 9 10 13 12 11 9 9 10 11 12 13 12 13 12 11 10 9 10 11 12 11 10 9 6 5 5 6 4 8 8 11 11 10 11 12 13 12 11 11 9 7 6 5 4 3 3 3
11 12 12 12 12 12 13 12 12 11 10 10 10 10 11 10 9 7 7 6 6 6 6 6 6 6 7 7 7 7 8 9 8 8 7 9 10 10 10 9 9 12 11 9 10 8 12 12 13 13 14 14 13 12 12 11 11 12 12 12 12 11 7 5 6 5 6 7 9 12 11 12 11 12 12 10 10 8 8 7 6 5 4 3 3
12 12 12 12 12 12 13 12 11 10 10 10 10 10 10 9 8 8 7 8 7 7 7 7 7 8 8 8 7 6 6 8 8 7 7 8 9 10 11 11 9 9 10 12 11 9 7 10 12 13 14 14 13 13 13 12 12 12 12 12 11 10 7 6 6 6 6 7 7 8 8 8 8 9 10 9 8 9 8 7 6 5 5 4 3
12 13 13 13 12 12 12 11 9 9 9 9 10 10 10 10 9 9 8 8 8 7 7 7 8 10 9 8 7 6 5 6 6 6 6 7 8 10 12 12 11 10 9 9 14 14 9 7 9 11 14 15 15 14 12 11 11 10 9 12 11 10 8 7 5 4 5 6 7 13 11 7 5 5 6 8 9 9 8 7 8 7 7 6 4
12 12 12 12 12 12 11 10 9 9 9 9 10 11 10 10 9 9 8 7 8 7 7 7 9 10 10 9 9 8 7 6 7 7 7 7 8 9 11 11 11 11 9 9 9 12 12 8 7 12 13 15 14 13 12 11 12 11 12 12 11 9 6 5 6 6 6 8 9 11 10 6 2 2 4 7 8 9 8 8 8 8 9 9 7
11 11 11 12 11 11 10 10 9 9 9 10 11 10 10 9 8 7 7 8 8 8 8 8 8 9 11 11 11 10 8 7 7 7 8 7 7 8 9 10 10 10 10 10 10 10 16 11 9 13 14 14 12 14 15 14 13 12 12 12 11 10 8 7 7 8 10 8 7 9 9 8 8 4 4 3 8 9 7 7 7 9 10 10 10
10 10 10 11 10 10 9 9 9 9 10 11 12 10 9 8 7 7 7 9 10 9 9 9 8 9 9 10 12 12 11 9 7 8 8 8 8 7 8 9 9 9 9 10 11 11 12 16 14 14 12 11 12 12 14 15 15 15 13 12 12 12 13 12 11 9 10 9 8 8 10 10 9 11 7 7 8 5 1 3 6 10 14 15 15
10 10 10 10 10 9 9 9 9 10 11 12 12 10 8 7 6 7 9 9 10 10 9 9 10 9 10 11 13 12 12 11 9 9 9 9 10 8 8 8 9 9 9 9 11 12 12 11 12 12 13 14 12 13 13 13 16 15 12 12 14 13 12 13 12 11 11 11 9 8 9 10 10 10 11 9 4 8 6 3 5 6 9 12 13
10 10 10 10 9 9 9 9 10 11 12 13 12 9 9 8 8 9 10 11 11 12 12 12 11 10 10 11 12 13 13 12 11 12 11 10 10 9 9 9 8 7 8 8 9 11 12 13 13 14 15 17 16 15 14 14 14 16 14 15 14 12 12 12 12 11 9 8 8 7 9 10 9 11 13 11 12 11 7 6 6 8 9 6 5
10 10 10 9 9 9 9 9 10 11 11 12 10 8 7 8 8 9 11 12 13 13 12 11 11 12 13 nan 13 12 13 13 12 11 10 8 8 9 9 8 7 8 8 8 9 10 11 12 13 13 14 14 15 17 14 12 13 13 13 13 12 12 12 11 11 9 9 9 9 8 8 8 8 9 10 10 9 8 10 10 8 9 12 9 6
9 10 9 9 8 8 9 10 10 11 11 10 9 8 8 8 9 9 10 12 12 13 13 14 13 nan nan nan nan 13 12 14 13 10 9 7 6 7 7 7 8 8 8 9 9 9 9 11 11 12 13 14 13 14 18 17 16 15 12 11 9 10 12 11 9 9 6 9 9 9 8 5 6 12 10 9 10 11 12 12 11 11 12 8 6
9 9 8 8 9 8 9 10 11 10 9 9 9 8 8 9 9 8 10 11 11 12 14 14 nan nan 15 nan nan nan 14 13 14 12 11 8 6 6 7 8 9 9 9 8 8 8 9 10 11 11 12 12 13 14 15 15 15 17 17 16 16 17 15 16 14 10 8 11 11 12 10 9 11 14 18 13 12 11 11 10 10 10 10 10 8
8 9 7 7 7 8 9 9 10 9 9 8 8 8 8 9 9 10 11 11 13 14 13 14 nan nan nan nan 11 nan nan 15 15 13 13 11 10 7 7 7 9 9 8 9 9 9 9 10 11 11 11 11 13 14 14 14 18 18 18 16 17 16 16 19 23 23 17 12 11 15 16 16 13 13 15 18 17 13 12 10 10 10 10 10 10
7 7 7 6 6 7 8 8 9 8 7 7 7 7 9 8 9 10 12 11 11 12 13 16 17 15 nan 15 nan nan nan 12 nan 13 13 15 12 10 7 6 7 7 7 9 9 9 9 11 11 11 12 11 12 14 15 15 16 17 18 18 18 17 18 20 21 21 19 17 16 17 20 19 19 19 20 20 18 16 15 14 12 10 10 10 10
6 6 7 6 5 6 7 7 8 7 7 6 5 6 8 9 10 11 12 12 10 11 14 16 16 16 14 11 8 6 9 9 13 15 13 11 10 8 7 6 5 6 6 7 9 9 10 10 10 11 12 11 11 13 14 15 16 16 15 18 18 19 19 18 20 22 23 24 23 23 23 23 21 20 19 18 18 17 17 17 16 15 14 14 13
6 6 5 6 5 4 5 6 6 7 7 5 5 7 7 9 10 10 10 10 12 12 13 15 15 14 14 12 9 8 6 8 10 11 16 14 11 10 9 8 8 8 8 6 7 9 10 9 10 10 11 11 11 12 13 15 16 16 17 19 18 18 18 18 18 19 22 23 24 24 24 24 24 22 21 20 20 20 19 18 17 17 16 15 15
5 5 5 5 5 4 4 4 5 7 6 5 5 6 7 8 9 9 9 11 14 14 13 14 14 14 13 12 11 7 6 6 7 11 11 12 13 11 10 10 10 11 11 9 8 7 8 8 9 10 11 12 12 13 14 14 15 17 18 19 18 18 18 17 16 17 19 20 21 22 23 23 24 24 23 21 21 21 21 20 20 19 18 17 16
4 5 6 6 6 5 5 4 5 8 6 3 4 8 10 9 9 10 12 14 15 15 14 13 14 13 14 12 11 9 8 6 8 10 11 11 11 12 11 9 10 11 12 12 11 10 9 9 8 8 10 11 12 13 13 14 15 16 17 19 16 16 17 18 18 17 17 18 19 21 nan nan nan nan nan nan nan 21 20 20 20 19 19 18 16
3 5 6 7 7 7 6 6 6 8 6 4 5 8 8 9 11 13 14 16 15 16 16 14 13 12 13 13 12 10 9 8 10 10 9 9 10 12 nan 11 nan 10 10 12 12 11 10 10 10 11 10 11 11 12 12 13 14 15 17 18 16 15 15 16 16 17 17 18 19 19 20 22 22 nan nan nan nan nan nan nan nan 18 17 17 nan
3 5 7 9 9 8 7 6 7 8 6 5 6 8 7 8 10 14 15 16 16 17 16 14 12 12 14 14 13 nan 11 10 10 10 11 12 11 nan nan nan nan nan 9 8 10 11 10 9 9 9 9 10 11 12 12 13 14 15 17 17 16 15 15 15 16 16 17 17 18 19 19 21 22 22 22 23 22 21 20 19 17 16 16 16 15
5 5 7 10 10 9 8 7 7 7 7 5 5 7 6 7 10 12 13 15 16 17 17 15 14 12 13 14 14 nan 12 nan nan 10 10 10 11 nan nan 10 nan nan 8 8 9 11 11 11 9 8 8 8 9 10 12 12 13 18 15 17 17 16 15 15 15 16 17 17 17 18 18 19 20 21 21 nan 22 22 21 19 18 16 15 14 13
7 6 7 11 11 11 11 8 7 7 7 6 6 8 7 7 10 13 13 15 17 18 18 18 16 14 nan nan 15 nan nan 11 nan nan nan 9 nan 10 nan nan 11 nan 10 8 9 10 11 12 11 9 8 8 7 9 9 10 10 15 14 11 15 13 14 14 15 16 17 18 18 18 17 17 19 20 20 nan nan nan nan nan nan 16 14 14 12
8 7 7 9 10 12 13 11 8 8 7 7 8 9 8 8 11 12 13 14 16 19 19 19 18 17 14 14 16 15 14 nan nan nan nan nan nan nan 11 10 nan nan 9 10 10 nan nan 13 13 11 10 10 9 8 8 8 9 14 13 10 12 14 13 13 15 17 18 18 19 19 19 18 18 18 19 19 19 20 21 20 19 17 15 14 14
9 9 9 9 10 12 14 13 10 8 8 7 9 10 9 9 10 11 11 13 16 17 17 19 19 19 18 16 16 15 14 13 nan nan nan nan nan 10 12 12 nan nan 13 12 11 14 nan 11 13 14 14 14 13 12 11 10 10 14 15 13 12 14 16 16 17 18 18 19 19 19 20 19 19 18 18 18 19 19 19 20 19 18 17 16 15
10 10 9 9 10 11 14 14 11 9 9 8 10 11 11 10 10 10 12 12 15 17 17 18 19 21 20 18 16 15 14 14 13 12 12 11 11 11 13 13 nan nan 14 14 nan 14 15 nan 15 15 15 16 16 16 16 15 15 17 16 15 16 17 20 19 19 nan nan nan nan 19 19 19 18 18 18 17 17 18 18 19 20 20 20 19 19
10 10 9 10 10 11 12 14 13 10 9 9 11 12 12 11 10 11 12 14 15 17 17 18 18 19 18 19 17 16 15 14 14 13 12 12 12 12 13 14 14 nan 13 13 14 nan 15 nan nan 17 17 19 20 21 21 20 21 19 20 20 20 19 23 23 21 nan nan nan nan nan nan nan 20 19 18 17 17 17 18 19 21 22 22 23 22
11 10 10 11 11 11 11 13 14 12 11 10 13 14 13 11 11 11 12 14 15 15 16 18 18 18 18 17 16 16 15 15 15 15 14 14 14 14 14 15 15 15 14 13 12 14 14 16 nan 17 19 20 21 23 23 24 27 23 24 24 23 24 26 24 nan nan nan nan nan nan nan nan nan nan nan nan nan nan nan 20 21 22 23 24 25
13 12 12 11 11 12 12 13 14 13 12 12 15 15 14 11 12 11 13 15 15 16 16 17 18 18 18 19 17 16 16 16 15 15 14 14 14 14 14 15 15 16 14 14 13 14 nan 14 15 nan 20 21 21 22 24 26 29 27 26 27 26 29 nan 27 nan nan nan nan nan nan nan nan nan nan nan nan nan nan nan 22 23 24 25 26 27
14 14 13 11 11 12 13 13 14 14 13 12 14 16 14 11 12 12 13 16 16 16 16 17 16 18 19 20 19 18 16 16 16 15 15 15 14 14 14 15 16 16 15 15 15 13 16 nan 14 18 20 22 21 22 23 25 29 30 28 28 30 32 29 29 34 nan nan nan nan nan nan nan nan nan nan nan nan nan nan 25 25 25 26 26 28
16 15 14 13 12 12 13 14 14 15 15 14 17 17 14 12 12 13 14 17 17 16 16 17 17 18 19 19 19 19 18 17 16 16 16 16 15 14 14 14 15 16 16 17 16 15 16 16 15 16 20 21 22 24 24 26 29 30 30 30 30 30 30 30 30 36 nan nan nan nan nan nan nan nan nan nan nan nan nan 27 27 nan nan nan nan
18 17 16 15 14 14 13 14 16 16 16 17 18 17 15 13 12 12 13 17 17 17 16 17 18 17 18 19 19 19 19 19 18 18 17 17 16 16 15 15 15 15 16 16 17 16 15 19 18 18 19 23 22 25 26 27 29 31 31 32 32 32 32 31 31 33 41 nan nan nan nan nan nan nan nan nan nan nan nan nan nan nan nan nan nan
18 18 17 16 17 16 14 15 17 16 16 16 17 18 15 14 13 13 14 16 17 17 18 18 19 20 20 20 20 20 19 20 19 18 18 18 17 17 17 16 16 16 17 18 18 18 19 20 22 20 20 22 23 25 28 28 29 30 31 31 31 33 34 34 33 33 41 nan nan nan nan nan nan nan nan nan nan nan nan nan nan nan nan nan nan
19 19 18 18 18 17 15 15 16 17 17 16 17 17 16 14 13 13 13 15 16 16 18 19 21 22 23 23 22 23 23 23 21 20 18 19 19 18 18 18 18 18 19 21 21 20 22 22 27 25 24 24 25 25 26 27 29 31 31 31 32 32 33 35 35 35 39 nan nan nan nan nan nan nan nan nan nan nan nan nan nan nan nan nan nan
19 20 20 20 19 18 15 14 15 16 17 17 18 17 16 14 13 12 13 14 15 16 17 19 22 25 25 25 25 26 26 26 24 22 20 21 20 20 21 21 22 22 23 24 24 24 23 25 26 29 29 29 28 28 29 28 30 31 32 32 31 31 33 35 36 38 39 nan nan nan nan nan nan nan nan nan nan nan nan nan nan nan nan nan nan
18 18 19 19 18 17 15 14 16 17 18 18 18 18 17 15 13 11 12 13 15 16 17 19 23 25 25 26 26 28 28 29 28 25 23 22 21 22 24 24 26 26 27 28 27 26 25 25 26 28 31 31 31 32 33 32 30 29 31 32 33 34 35 36 38 40 nan 39 39 39 40 37 37 nan nan nan nan nan nan nan nan nan nan nan nan
16 16 16 16 16 16 15 15 16 18 19 19 19 19 19 17 14 13 12 13 15 16 17 20 23 25 25 26 28 28 29 31 32 29 26 25 24 26 27 27 28 29 29 30 31 30 29 27 28 27 27 30 31 32 36 35 32 30 29 30 32 37 38 39 40 41 40 40 42 45 nan nan nan nan nan nan nan nan nan nan nan nan nan nan nan
18 17 17 17 16 15 15 15 16 18 19 18 18 19 19 18 16 14 13 13 16 17 17 20 23 25 26 27 28 29 30 32 34 32 30 29 28 28 29 30 32 32 31 31 32 33 32 30 29 28 28 29 31 33 35 36 35 36 35 34 34 36 38 40 41 39 39 41 43 44 43 38 31 30 nan nan nan nan nan nan nan nan nan nan nan
17 17 17 17 17 16 15 16 17 18 18 18 18 20 21 20 18 15 14 14 16 17 17 20 23 25 25 26 27 28 30 33 37 34 32 31 29 31 33 35 36 36 35 33 33 33 33 32 31 30 28 30 33 33 35 36 37 37 39 38 37 38 39 39 41 43 41 41 42 44 39 nan 33 32 34 38 41 43 nan nan nan nan nan nan nan
20 19 18 18 17 17 16 16 16 17 17 17 18 22 22 22 21 18 16 15 16 17 18 19 21 23 25 25 26 29 32 37 37 35 30 31 33 33 35 38 40 41 40 37 35 34 33 32 32 30 30 32 33 34 34 36 38 39 39 40 40 41 41 40 41 45 46 nan 43 43 38 40 43 42 45 46 47 48 47 nan nan nan nan nan nan
22 21 21 20 18 16 16 15 15 15 15 15 21 23 23 24 24 21 19 18 17 18 19 20 20 22 23 26 26 30 33 34 34 34 33 34 35 37 38 41 44 45 44 41 36 33 32 31 31 31 31 31 32 33 35 37 39 39 39 41 42 42 42 41 40 45 46 43 44 43 42 47 52 50 49 48 45 45 44 44 nan nan nan nan nan
21 20 20 20 19 17 15 14 13 13 13 16 24 25 25 26 25 23 21 19 18 18 19 20 20 22 25 27 29 30 31 32 33 34 35 36 39 42 43 43 46 47 45 42 35 30 30 30 31 31 31 31 32 35 37 38 39 40 41 42 43 43 43 43 42 40 43 45 44 43 44 48 50 48 46 46 43 42 41 nan nan nan nan nan nan
21 20 20 21 20 19 17 15 13 12 12 20 26 27 27 27 27 25 22 21 19 19 21 21 21 24 28 29 30 30 28 34 35 35 35 37 41 44 45 46 47 47 45 nan 34 28 28 31 31 31 33 33 33 35 38 40 40 40 42 42 43 45 45 43 40 37 40 45 45 44 45 47 49 45 41 40 38 37 37 nan nan nan nan nan nan
21 20 20 21 19 19 19 17 14 12 11 21 28 29 29 29 29 28 24 23 21 20 22 22 22 26 30 31 30 29 29 33 35 36 36 37 40 42 43 44 45 47 44 nan nan nan 30 31 32 32 34 36 35 36 38 42 42 41 42 43 45 46 44 40 37 37 39 46 44 42 41 42 43 39 nan nan nan 35 37 nan nan nan nan nan nan
23 21 22 22 20 20 19 18 16 14 11 22 28 29 30 30 31 31 27 25 23 22 22 23 24 27 31 31 31 31 32 34 36 38 37 38 40 41 43 45 46 45 43 41 40 39 38 37 35 34 34 37 36 36 40 43 43 42 41 43 nan 42 41 39 36 38 40 43 43 43 38 nan nan nan nan nan nan nan nan nan nan nan nan nan nan
24 22 23 22 22 22 21 19 17 15 13 23 26 28 30 30 33 32 29 27 23 23 24 23 24 27 29 30 31 32 34 35 38 41 38 37 40 42 43 45 47 46 42 41 44 46 43 42 40 37 35 36 39 41 43 44 44 nan nan nan nan nan nan 40 38 nan 38 42 43 38 34 nan nan nan nan nan nan nan nan nan nan nan nan nan nan
27 28 26 24 23 24 23 20 19 16 13 26 28 30 31 33 36 32 31 29 23 22 24 24 25 28 30 31 31 31 35 36 42 44 42 40 39 41 44 47 48 47 44 44 45 nan nan 44 42 39 37 42 46 nan nan 46 44 44 45 nan nan nan 42 39 nan 37 37 nan nan nan nan nan nan nan nan nan nan nan nan nan nan nan nan nan nan
26 25 26 25 23 22 26 24 25 21 19 30 33 33 34 37 36 33 33 31 25 23 23 24 24 27 28 34 33 33 35 37 47 46 44 42 40 43 46 47 49 49 46 45 44 44 nan nan 43 42 42 45 nan nan nan 48 nan nan nan nan 43 nan nan nan nan nan nan nan nan nan nan nan nan nan nan nan nan nan nan nan nan nan nan nan nan
28 30 31 29 28 29 28 26 30 29 25 31 40 37 37 39 38 36 36 33 27 25 25 24 24 25 28 33 35 33 35 41 50 47 46 44 43 46 48 48 50 51 49 48 47 48 nan nan nan nan 42 nan nan nan nan nan nan nan nan 40 nan nan nan nan nan nan nan nan nan nan nan nan nan nan nan nan nan nan nan nan nan nan nan nan nan
Wind_Direction
108 106 106 104 102 98 96 95 96 94 92 89 86 84 79 74 70 67 62 61 61 59 56 53 31 42 44 28 18 22 22 26 30 25 23 22 21 9 18 28 39 37 36 41 43 357 62 47 17 14 31 48 33 19 15 353 343 340 306 308 306 297 296 297 296 291 292 293 294 296 297 297 298 297 296 297 293 294 290 289 286 290 293 297 304
107 107 104 101 99 96 93 91 91 89 83 81 73 70 66 62 57 54 51 50 51 48 48 42 40 25 29 26 15 13 11 13 18 17 12 11 12 7 5 20 27 32 27 31 32 17 37 49 35 21 26 37 36 31 9 11 3 325 343 343 330 301 301 295 295 296 291 290 288 293 293 288 287 290 295 295 294 291 291 287 287 283 288 289 300
106 104 101 98 96 94 89 87 83 78 74 71 63 62 59 57 54 50 43 42 41 36 36 32 24 21 14 20 14 8 4 2 9 9 8 358 5 8 356 7 16 19 25 14 19 27 31 43 38 31 29 36 31 27 23 14 353 357 2 349 347 329 322 312 297 302 297 295 291 286 291 296 293 286 283 283 284 282 282 284 282 286 282 283 284
103 100 97 94 93 90 86 82 80 76 71 69 63 57 56 53 45 39 39 38 35 29 25 22 13 1 1 1 357 353 348 351 3 357 358 351 355 359 359 354 1 8 16 13 7 18 28 30 39 38 31 33 26 17 26 19 4 10 5 356 3 347 318 304 285 297 306 300 296 296 295 295 289 285 277 273 276 275 271 274 268 267 267 267 275
99 95 92 91 89 85 83 79 76 72 70 65 58 50 48 46 39 36 36 38 37 26 18 18 7 350 349 339 342 335 333 336 336 339 338 338 340 346 351 350 350 352 358 8 6 12 8 20 32 33 32 30 24 16 24 21 16 17 16 20 12 2 359 333 307 297 303 305 299 301 302 294 290 281 272 265 261 258 258 255 254 252 253 245 238
95 90 88 87 82 77 76 74 68 64 62 54 48 45 48 49 49 49 45 48 45 34 27 18 7 358 353 339 340 334 336 336 332 332 330 328 325 335 339 341 344 350 345 349 1 359 357 5 25 27 28 26 25 21 24 24 21 25 24 26 21 9 12 5 341 314 282 280 298 290 277 301 308 291 275 263 252 260 260 262 265 262 253 248 245
89 87 84 81 78 72 67 64 57 55 56 48 50 49 49 50 50 57 53 48 46 29 28 17 7 2 351 350 347 344 343 336 331 330 320 316 323 326 330 332 336 342 343 350 342 345 342 350 8 21 17 22 21 20 18 22 24 22 34 36 22 11 7 9 349 317 316 320 324 299 295 255 191 238 245 233 226 234 253 274 293 297 287 268 246
87 83 81 75 71 67 60 54 50 53 55 55 54 56 52 51 49 54 53 48 39 15 9 358 2 358 352 354 351 354 343 333 325 323 315 314 310 316 319 322 328 331 332 341 340 324 326 337 351 1 12 11 19 19 7 18 25 16 28 32 24 357 342 347 355 343 357 17 358 326 326 335 293 183 270 234 230 245 247 265 281 290 295 290 283
83 76 72 67 62 57 54 51 49 58 61 60 59 57 53 49 41 38 35 35 24 5 359 360 357 355 356 348 347 343 338 327 318 323 315 313 305 304 306 308 313 319 328 328 328 327 323 331 349 353 0 8 7 10 7 8 21 20 30 32 21 345 343 351 358 1 11 23 6 1 356 2 14 354 280 257 226 214 228 241 255 262 263 266 260
76 68 64 61 58 53 56 51 56 60 63 61 60 50 44 47 45 24 24 23 23 6 6 4 3 3 353 341 342 343 334 331 322 312 308 301 300 292 290 291 299 303 309 310 314 320 324 330 341 344 345 340 351 7 2 3 13 21 22 27 24 11 355 355 0 7 358 356 14 5 345 10 3 324 289 236 222 229 254 316 275 252 245 239 242
71 62 59 54 51 53 61 60 59 59 59 58 55 44 34 26 35 28 13 18 17 7 5 5 360 359 360 339 342 343 339 336 336 320 306 294 292 299 298 292 290 295 300 307 313 317 317 321 325 328 329 331 355 358 0 360 4 5 14 25 30 17 4 359 360 8 4 357 6 355 353 357 352 325 315 302 335 36 35 352 318 333 298 268 247
66 57 53 51 52 60 66 61 58 55 55 57 53 43 27 19 28 26 18 7 7 8 5 4 360 357 352 349 344 348 345 338 338 326 317 302 291 291 296 298 295 288 291 300 304 306 311 313 319 324 324 332 345 347 349 355 2 2 2 17 21 14 7 2 2 9 11 1 350 347 351 342 339 325 315 336 19 19 5 335 331 2 1 328 272
61 52 49 48 56 69 68 62 56 52 50 52 46 40 14 15 18 14 16 8 4 5 359 6 4 6 359 nan 353 351 349 346 345 333 325 312 297 292 293 297 293 287 284 288 295 301 305 309 311 315 317 319 329 333 328 345 350 353 356 355 3 9 5 357 358 1 7 4 345 342 351 333 329 325 301 333 355 333 355 358 348 7 11 17 21
59 51 49 50 61 69 65 58 50 49 45 40 28 19 13 6 13 11 1 7 7 5 357 6 5 nan nan nan nan 355 356 6 13 10 358 342 320 302 294 292 288 288 286 287 288 289 291 294 301 303 306 313 317 320 322 338 336 329 334 348 349 4 356 342 339 330 9 356 352 336 309 320 325 296 302 23 0 360 4 357 358 354 360 7 13
58 51 50 53 65 70 62 53 49 45 34 27 24 27 16 4 9 16 357 359 2 358 0 15 nan nan 6 nan nan nan 7 20 28 35 33 24 3 326 308 297 289 286 284 281 277 276 272 277 283 287 293 301 306 312 313 314 318 323 330 334 338 326 332 337 335 340 25 9 358 346 340 1 350 340 341 6 356 343 343 353 349 345 349 359 9
57 52 50 57 64 65 58 50 45 37 31 23 22 25 9 7 10 5 5 9 9 359 357 1 nan nan nan nan 7 nan nan 21 26 32 37 34 28 8 333 312 294 286 284 276 270 267 268 271 272 277 284 292 301 306 306 304 310 326 326 326 322 325 326 328 328 340 6 13 356 341 346 354 348 335 328 342 346 342 338 334 341 342 342 348 342
60 50 49 55 61 61 53 47 41 25 16 20 18 22 9 10 5 359 9 25 26 5 351 357 359 5 nan 4 nan nan nan 7 nan 24 36 33 29 28 4 349 301 294 285 276 276 274 278 281 282 286 288 292 298 300 302 303 307 309 311 312 310 316 316 317 313 313 316 316 312 318 324 326 323 318 313 312 321 320 320 326 327 321 313 315 317
58 52 46 49 52 47 44 44 32 11 3 14 24 6 0 5 358 8 17 21 27 9 355 346 350 354 1 8 11 8 9 6 31 24 24 30 30 31 29 14 344 330 314 301 291 292 292 291 293 293 294 297 296 296 296 298 297 299 299 298 304 304 303 302 307 309 306 308 311 313 314 315 314 312 307 304 301 299 298 301 298 290 287 286 285
52 43 39 36 39 29 29 35 21 359 347 352 16 8 360 5 358 10 17 5 3 5 1 346 339 347 354 1 8 20 20 14 27 20 24 19 31 27 19 16 3 357 349 336 311 305 298 297 298 297 299 301 301 298 300 298 297 295 296 299 305 305 304 305 302 302 305 306 308 310 311 310 311 309 308 305 301 301 301 300 299 294 291 288 286
40 26 22 19 14 9 7 14 5 347 351 354 3 1 351 352 8 12 5 358 358 359 356 347 353 344 352 359 3 359 8 27 18 16 23 24 18 23 22 16 10 2 355 355 352 325 312 311 308 307 307 308 306 305 302 301 302 303 303 298 298 300 301 301 301 302 301 301 301 301 303 303 304 305 305 303 301 301 302 303 303 303 301 296 288
11 12 2 3 356 351 343 349 345 342 353 357 356 347 352 358 3 6 1 356 356 355 354 354 1 356 351 359 2 2 353 345 338 352 10 19 16 18 21 12 20 7 1 359 358 358 346 337 329 321 317 314 312 311 307 305 303 302 302 299 295 292 294 296 301 304 302 297 295 295 nan nan nan nan nan nan nan 300 300 301 301 302 303 300 293
340 353 348 351 351 343 332 337 339 338 347 333 348 347 348 2 8 7 1 358 356 359 2 1 4 4 4 357 360 356 355 349 352 357 1 20 19 21 nan 27 nan 16 4 9 6 4 358 350 345 341 331 324 320 317 314 312 310 309 304 302 301 296 291 290 289 292 293 293 292 292 292 294 295 nan nan nan nan nan nan nan nan 296 296 296 nan
298 322 345 346 347 339 329 319 320 322 336 332 351 344 351 0 6 5 1 2 2 7 9 9 5 5 4 5 6 nan 4 3 3 5 7 6 15 nan nan nan nan nan 7 13 13 11 7 0 356 347 334 331 324 320 318 315 313 315 308 312 312 309 301 300 296 293 291 290 293 294 295 294 295 297 297 298 298 297 296 294 293 291 290 290 291
278 302 332 348 341 335 325 317 319 334 334 330 347 334 345 350 358 3 5 6 7 11 17 17 13 7 11 12 14 nan 10 nan nan 1 8 14 17 nan nan 19 nan nan 15 14 15 21 18 19 11 2 346 335 326 317 313 312 311 308 315 316 319 316 312 308 305 301 298 294 290 289 288 289 289 290 292 nan 295 296 296 296 295 292 288 285 282
284 307 332 343 336 333 330 331 332 325 326 329 344 328 327 344 359 6 6 5 9 13 17 23 21 20 nan nan 20 nan nan 13 nan nan nan 360 nan 19 nan nan 27 nan 23 22 23 13 20 24 19 11 357 346 336 323 311 307 301 298 302 299 307 305 301 296 293 290 287 285 282 281 279 280 283 284 287 nan nan nan nan nan nan 288 282 274 268
290 305 312 327 330 331 333 337 329 321 325 335 338 320 326 344 358 6 10 9 8 11 17 21 21 25 26 22 24 20 21 nan nan nan nan nan nan nan 358 1 nan nan 14 18 14 nan nan 16 19 11 8 5 0 341 326 310 303 299 300 288 291 296 288 276 267 263 264 264 268 270 272 272 273 276 280 283 286 288 290 290 288 285 277 266 259
289 293 298 309 320 323 329 328 320 321 324 326 326 312 318 334 351 4 8 4 7 10 14 16 17 18 18 22 24 24 20 17 nan nan nan nan nan 4 359 1 nan nan 18 14 18 23 nan 1 4 9 7 3 358 347 335 321 306 292 298 299 291 289 282 274 266 264 263 265 267 269 272 272 273 272 273 274 277 277 280 284 284 283 276 266 258
282 287 294 297 309 320 327 333 329 322 324 327 318 306 314 331 343 355 5 358 6 10 13 15 18 16 17 15 16 25 16 17 19 19 17 16 8 4 4 12 nan nan 14 20 nan 18 13 nan 354 354 353 351 344 336 326 324 313 305 314 304 295 289 293 286 281 nan nan nan nan 273 273 271 269 266 266 267 269 269 270 273 277 278 277 272 265
279 284 287 292 300 310 320 331 330 326 323 322 316 305 308 323 339 348 358 359 4 10 13 14 18 19 17 11 13 17 14 10 11 13 11 9 8 5 10 14 13 nan 17 16 11 nan 359 nan nan 341 341 339 336 332 329 324 315 316 311 307 300 293 290 292 286 nan nan nan nan nan nan nan 274 274 272 270 267 265 264 268 270 271 271 271 269
279 280 287 295 297 304 312 321 325 328 320 317 313 305 306 318 336 343 353 353 0 6 12 16 18 18 20 14 12 16 11 8 10 8 2 3 4 5 7 10 10 14 12 13 6 356 352 348 nan 345 339 337 336 331 327 325 316 323 316 309 303 295 287 289 nan nan nan nan nan nan nan nan nan nan nan nan nan nan nan 271 270 269 269 270 269
279 282 285 291 293 296 303 313 318 326 320 315 305 300 306 315 327 337 345 350 357 4 9 13 19 17 19 19 14 15 9 11 10 6 360 359 359 359 1 1 2 6 2 357 5 346 nan 349 346 nan 335 336 332 329 327 325 321 321 316 310 306 296 nan 294 nan nan nan nan nan nan nan nan nan nan nan nan nan nan nan 277 275 272 271 270 270
281 287 287 293 295 299 301 310 318 322 318 314 306 300 301 313 323 334 342 348 355 1 7 12 16 15 17 18 14 12 7 6 6 4 0 0 359 358 355 355 356 357 352 350 354 351 338 nan 340 338 337 331 329 330 328 324 317 319 315 311 304 302 301 295 303 nan nan nan nan nan nan nan nan nan nan nan nan nan nan 283 281 279 277 274 272
282 288 292 296 295 295 299 303 313 313 312 308 295 296 299 309 320 332 338 345 351 354 360 8 12 11 13 14 13 9 3 4 4 5 3 358 357 356 352 352 353 348 346 344 345 345 333 332 338 337 329 328 330 329 327 324 320 317 316 314 311 305 300 297 295 303 nan nan nan nan nan nan nan nan nan nan nan nan nan 276 276 nan nan nan nan
284 290 295 294 293 294 296 301 305 309 305 297 294 294 298 306 321 322 337 345 348 350 353 4 4 2 2 6 6 360 355 360 0 1 1 359 355 355 350 353 352 346 342 338 339 337 337 326 335 334 331 327 328 326 326 324 322 318 318 315 311 308 304 300 296 294 302 nan nan nan nan nan nan nan nan nan nan nan nan nan nan nan nan nan nan
282 287 292 295 293 293 293 295 300 302 301 295 291 294 297 305 318 326 337 344 347 347 351 358 356 351 352 354 355 350 344 349 352 355 353 352 351 352 351 349 352 348 338 337 333 333 334 330 327 331 331 327 328 324 325 323 320 318 317 316 314 310 307 302 297 292 294 nan nan nan nan nan nan nan nan nan nan nan nan nan nan nan nan nan nan
283 286 290 292 291 290 292 294 297 297 298 292 288 291 296 302 312 324 334 341 344 346 348 351 350 345 347 346 348 346 343 345 345 342 343 343 342 342 346 343 345 345 336 333 335 331 327 329 324 329 327 326 325 325 321 321 323 321 320 318 315 313 308 303 298 294 290 nan nan nan nan nan nan nan nan nan nan nan nan nan nan nan nan nan nan
288 286 286 288 289 289 287 290 293 293 293 290 287 289 290 292 304 316 327 335 339 341 344 346 343 342 344 346 343 343 344 348 347 343 338 341 341 340 341 339 340 339 334 330 331 329 327 327 324 324 325 325 324 322 322 326 326 325 323 322 319 313 306 302 298 294 295 nan nan nan nan nan nan nan nan nan nan nan nan nan nan nan nan nan nan
303 299 296 292 290 292 285 283 283 284 285 286 287 289 291 291 295 308 316 327 333 334 339 341 339 340 342 345 343 345 349 353 356 352 345 344 340 339 341 340 339 337 334 330 328 327 326 326 325 323 322 324 324 324 324 327 329 327 324 322 320 315 308 305 300 295 nan 291 287 287 291 292 291 nan nan nan nan nan nan nan nan nan nan nan nan
332 328 322 315 301 298 290 281 278 279 281 283 283 286 287 288 291 299 309 318 322 324 334 339 337 339 342 342 343 347 354 1 5 0 351 344 340 342 340 341 339 337 334 330 326 325 324 323 322 322 320 320 320 322 321 324 327 326 325 323 322 317 312 308 304 300 298 294 293 298 nan nan nan nan nan nan nan nan nan nan nan nan nan nan nan
349 347 343 335 324 313 305 292 281 276 280 282 282 284 285 285 285 290 298 306 314 319 328 333 334 337 341 343 344 348 359 6 6 2 353 345 338 340 339 339 337 336 334 329 323 321 320 321 321 320 319 318 319 321 321 324 326 327 327 325 325 321 315 309 305 301 297 294 291 287 291 290 292 289 nan nan nan nan nan nan nan nan nan nan nan
351 352 346 342 340 336 324 306 292 285 287 288 280 280 284 285 282 286 291 298 305 313 323 329 330 334 338 338 340 348 358 360 359 356 354 347 341 341 338 337 336 334 332 327 320 317 317 318 317 317 320 321 322 325 326 326 327 326 322 324 324 321 315 311 305 300 296 293 293 294 289 nan 289 287 290 297 301 306 nan nan nan nan nan nan nan
360 356 354 349 345 339 330 323 309 299 298 289 285 292 288 281 283 279 279 287 299 308 318 324 328 333 336 331 331 346 349 349 350 353 351 349 350 345 337 335 334 333 331 327 320 316 315 316 316 318 322 323 325 328 327 325 322 322 323 323 323 318 315 312 307 302 300 nan 297 297 297 297 297 299 306 311 312 313 312 nan nan nan nan nan nan
359 358 1 2 353 339 333 326 323 314 308 294 295 291 295 292 283 282 282 282 292 304 313 319 325 327 327 326 326 332 335 334 339 346 346 348 348 348 344 339 337 334 332 329 325 319 315 315 314 318 323 326 327 324 324 323 322 324 324 322 319 314 314 313 309 304 302 298 295 296 301 303 305 308 313 314 313 312 310 307 nan nan nan nan nan
345 349 358 360 355 350 336 330 327 320 314 307 299 298 297 296 290 283 281 280 285 298 306 316 320 318 315 320 327 326 329 331 333 335 342 345 346 347 347 345 341 341 337 332 329 323 317 314 316 322 324 325 324 323 323 323 323 323 323 320 318 318 316 315 313 308 301 300 297 300 303 304 308 312 313 312 310 308 306 nan nan nan nan nan nan
331 344 351 349 350 349 345 339 330 319 308 306 306 304 300 297 297 291 279 282 286 294 303 313 316 312 309 316 323 327 329 337 332 331 336 343 346 347 346 345 344 343 341 nan 336 330 320 319 322 325 325 323 325 325 324 324 322 325 323 322 320 320 319 317 315 312 306 303 300 302 304 304 306 308 308 308 308 306 306 nan nan nan nan nan nan
330 336 339 337 336 346 348 344 331 317 313 299 307 306 303 299 297 293 281 285 287 292 302 308 308 308 310 313 321 327 330 330 329 331 335 340 339 338 339 341 342 343 341 nan nan nan 325 325 325 327 325 324 325 323 323 321 323 326 326 324 321 320 321 321 317 311 305 303 304 303 305 306 307 306 nan nan nan 308 308 nan nan nan nan nan nan
320 327 330 328 333 341 342 348 338 328 320 299 304 305 303 299 295 290 282 281 284 289 294 301 303 304 307 312 319 323 326 327 325 328 333 337 336 335 336 339 342 342 338 336 332 329 327 327 327 329 327 325 325 323 320 321 325 326 325 324 nan 322 319 315 313 310 307 310 310 310 311 nan nan nan nan nan nan nan nan nan nan nan nan nan nan
309 314 307 310 319 332 331 338 336 336 319 299 299 299 298 294 289 277 280 283 286 288 288 293 296 298 303 309 314 318 321 325 324 326 330 332 333 333 333 336 338 338 336 332 329 328 327 326 326 328 325 321 316 320 319 322 325 nan nan nan nan nan nan 320 316 nan 311 310 314 316 317 nan nan nan nan nan nan nan nan nan nan nan nan nan nan
295 297 298 305 306 308 313 322 322 319 320 293 298 295 292 289 279 273 277 279 288 289 284 288 292 295 299 306 311 315 316 320 320 323 330 328 328 329 329 333 334 334 332 319 316 nan nan 322 318 315 314 314 313 nan nan 317 323 324 325 nan nan nan 322 320 nan 314 313 nan nan nan nan nan nan nan nan nan nan nan nan nan nan nan nan nan nan
284 288 289 287 290 295 296 305 306 308 303 293 301 296 294 291 286 277 273 275 284 286 285 286 288 292 300 305 311 311 313 315 313 322 327 325 325 324 325 329 331 331 329 323 317 312 nan nan 312 315 317 315 nan nan nan 322 nan nan nan nan 325 nan nan nan nan nan nan nan nan nan nan nan nan nan nan nan nan nan nan nan nan nan nan nan nan
287 285 284 284 284 280 282 290 295 300 298 298 303 301 301 295 287 274 272 274 282 283 285 286 288 290 294 298 308 310 311 309 312 319 322 321 321 320 322 324 326 329 328 323 319 316 nan nan nan nan 314 nan nan nan nan nan nan nan nan 327 nan nan nan nan nan nan nan nan nan nan nan nan nan nan nan nan nan nan nan nan nan nan nan nan nan